Palmdale, CA

2:09 AM PDT on August 26, 2016 (GMT -0700)
Palmdale Af Plant 42

Weather History for KPMD - June, 2014

Change the Weather History Date:

Monday, June 30, 2014

  Actual Average Record
Temperature  
Mean Temperature 88 °F 78 °F  
Max Temperature 102 °F 95 °F 111 °F (1994)
Min Temperature 73 °F 62 °F 45 °F (1952)
Degree Days  
Heating Degree Days 0 0  
Month to date heating degree days 0 6  
Since 1 June heating degree days 0 7  
Since 1 July heating degree days 2331 2925  
Cooling Degree Days 23 13  
Month to date cooling degree days 404 306  
Year to date cooling degree days 623 476  
Since 1 June cooling degree days 404 306  
Growing Degree Days 38 (Base 50)    
Moisture  
Dew Point 39 °F    
Average Humidity 23    
Maximum Humidity 35    
Minimum Humidity 11    
Precipitation  
Precipitation 0.00 in 0.00 in 0.01 in (2015)
Month to date precipitation 0.00 0.09  
Year to date precipitation 3.05 5.32  
Since 1 July precipitation 5.12  
Snow  
Snow 0.00 in - 0.00 in (1973)
Month to date snowfall 0.0  
Since 1 June snowfall 0.0  
Since 1 July snowfall 0.0  
Snow Depth 0.00 in    
Sea Level Pressure  
Sea Level Pressure 29.78 in    
Wind  
Wind Speed 11 mph (WSW)    
Max Wind Speed 25 mph    
Max Gust Speed 31 mph    
Visibility 10 miles    
Events      
T = Trace of Precipitation, MM = Missing Value Source: NWS Daily Summary

Daily Weather History Graph

Daily Weather History Graph

Search for Another Location

Airport or City:

Trip Planner

Search our weather history database for the weather conditions in past years. The results will help you decide how hot, cold, wet, or windy it might be!

Date:

Astronomy

Jun. 30, 2014 Rise Set
Actual Time 5:42 AM PDT 8:09 PM PDT
Civil Twilight 5:13 AM PDT 8:38 PM PDT
Nautical Twilight 4:36 AM PDT 9:14 PM PDT
Astronomical Twilight 3:57 AM PDT 9:54 PM PDT
Moon 8:51 AM PDT (6/30) 10:14 PM PDT (6/30)
Length of Visible Light 15h 25m
Length of Day
14h 26m
Waxing Crescent, 11% of the Moon is Illuminated
Jun 30
Waxing Crescent
Jul 5
First Quarter
Jul 12
Full
Jul 18
Last Quarter
Jul 26
New

Hourly Weather History & Observations

Time (PDT) Temp. Dew Point Humidity Pressure Visibility Wind Dir Wind Speed Gust Speed Precip Events Conditions
12:53 AM 80.1 °F 39.0 °F 23% 29.78 in 10.0 mi West 8.1 mph - N/A   Clear
1:53 AM 79.0 °F 34.0 °F 20% 29.78 in 10.0 mi SW 4.6 mph - N/A   Clear
2:53 AM 77.0 °F 32.0 °F 19% 29.77 in 10.0 mi SSW 9.2 mph - N/A   Clear
3:53 AM 75.9 °F 37.0 °F 24% 29.78 in 10.0 mi SSW 12.7 mph - N/A   Clear
4:53 AM 77.0 °F 37.9 °F 24% 29.78 in 10.0 mi SW 15.0 mph - N/A   Clear
5:53 AM 73.0 °F 41.0 °F 31% 29.80 in 10.0 mi SSW 10.4 mph - N/A   Clear
6:53 AM 78.1 °F 39.9 °F 25% 29.81 in 10.0 mi Calm Calm - N/A   Clear
7:53 AM 84.0 °F 37.0 °F 19% 29.82 in 10.0 mi SW 6.9 mph - N/A   Clear
8:53 AM 88.0 °F 37.0 °F 16% 29.82 in 10.0 mi NNW 3.5 mph - N/A   Clear
9:53 AM 91.9 °F 34.0 °F 13% 29.81 in 10.0 mi WNW 8.1 mph - N/A   Clear
10:53 AM 95.0 °F 36.0 °F 13% 29.80 in 10.0 mi WNW 10.4 mph - N/A   Clear
11:53 AM 98.1 °F 35.1 °F 11% 29.80 in 10.0 mi WSW 9.2 mph 18.4 mph N/A   Clear
12:53 PM 100.0 °F 35.1 °F 10% 29.78 in 10.0 mi SSW 9.2 mph - N/A   Clear
1:53 PM 100.9 °F 37.9 °F 11% 29.77 in 10.0 mi WSW 12.7 mph 18.4 mph N/A   Clear
2:53 PM 100.9 °F 41.0 °F 13% 29.75 in 10.0 mi WSW 12.7 mph 19.6 mph N/A   Clear
3:53 PM 102.0 °F 42.1 °F 13% 29.73 in 10.0 mi WSW 19.6 mph - N/A   Clear
4:53 PM 99.0 °F 46.0 °F 16% 29.74 in 10.0 mi WSW 18.4 mph - N/A   Clear
5:53 PM 97.0 °F 42.1 °F 15% 29.73 in 10.0 mi SW 21.9 mph 31.1 mph N/A   Clear
7:53 PM 90.0 °F 42.1 °F 19% 29.74 in 10.0 mi SW 11.5 mph - N/A   Clear
8:53 PM 86.0 °F 42.1 °F 21% 29.76 in 10.0 mi West 5.8 mph - N/A   Clear
9:53 PM 82.4 °F 44.6 °F 26% 29.88 in 10.0 mi West 9.2 mph - N/A   Clear
10:53 PM 82.0 °F 42.1 °F 24% 29.77 in 10.0 mi SSW 13.8 mph - N/A   Clear
11:53 PM 79.0 °F 48.9 °F 35% 29.77 in 10.0 mi SSW 11.5 mph - N/A   Clear